| time (UTC) | temp F | wind direction | speed knots | gust knots | rain 1hr in | rain 24hr in | rain mn in | humidity % | barometer mb |
| 20260508102031 | 53 | 257 | 3.5 | 12.2 | 0.00 | 0.00 | 0.00 | 33 | 1026.2 |
| 20260508101545 | 53 | 314 | 4.3 | 9.6 | 0.00 | 0.00 | 0.00 | 33 | 1026.2 |
| 20260508101031 | 54 | 303 | 1.7 | 9.6 | 0.00 | 0.00 | 0.00 | 31 | 1026.1 |
| 20260508100531 | 55 | 263 | 3.5 | 9.6 | 0.00 | 0.00 | 0.00 | 28 | 1026.0 |
| 20260508095533 | 55 | 303 | 6.1 | 11.3 | 0.00 | 0.00 | 0.00 | 31 | 1026.1 |
| 20260508095032 | 54 | 280 | 7.8 | 11.3 | 0.00 | 0.00 | 0.00 | 33 | 1026.2 |
| 20260508094542 | 53 | 306 | 3.5 | 11.3 | 0.00 | 0.00 | 0.00 | 33 | 1026.1 |
| 20260508094032 | 54 | 331 | 4.3 | 11.3 | 0.00 | 0.00 | 0.00 | 33 | 1026.2 |
| 20260508093534 | 55 | 289 | 5.2 | 11.3 | 0.00 | 0.00 | 0.00 | 31 | 1026.1 |
| 20260508093041 | 54 | 297 | 4.3 | 10.4 | 0.00 | 0.00 | 0.00 | 30 | 1026.1 |
| 20260508092534 | 54 | 274 | 3.5 | 8.7 | 0.00 | 0.00 | 0.00 | 31 | 1026.2 |
| 20260508092032 | 52 | 267 | 4.3 | 11.3 | 0.00 | 0.00 | 0.00 | 32 | 1026.2 |
| 20260508091553 | 54 | 288 | 3.5 | 11.3 | 0.00 | 0.00 | 0.00 | 28 | 1026.2 |
| 20260508091035 | 55 | 319 | 7.0 | 11.3 | 0.00 | 0.00 | 0.00 | 30 | 1026.2 |
| 20260508090531 | 54 | 227 | 4.3 | 11.3 | 0.00 | 0.00 | 0.00 | 32 | 1026.0 |
| 20260508090108 | 54 | 251 | 6.1 | 12.2 | 0.00 | 0.00 | 0.00 | 31 | 1026.2 |
| 20260508085534 | 53 | 290 | 5.2 | 12.2 | 0.00 | 0.00 | 0.00 | 35 | 1026.2 |
| 20260508085032 | 51 | 280 | 5.2 | 11.3 | 0.00 | 0.00 | 0.00 | 35 | 1026.2 |
| 20260508084548 | 52 | 27 | 5.2 | 11.3 | 0.00 | 0.00 | 0.00 | 32 | 1026.2 |
| 20260508084033 | 54 | 1 | 5.2 | 11.3 | 0.00 | 0.00 | 0.00 | 32 | 1026.0 |
| 20260508083535 | 53 | 357 | 4.3 | 10.4 | 0.00 | 0.00 | 0.00 | 33 | 1026.0 |
| 20260508083041 | 52 | 338 | 1.7 | 12.2 | 0.00 | 0.00 | 0.00 | 37 | 1026.1 |
| 20260508082535 | 52 | 281 | 5.2 | 12.2 | 0.00 | 0.00 | 0.00 | 33 | 1026.0 |
| 20260508082033 | 52 | 315 | 2.6 | 9.6 | 0.00 | 0.00 | 0.00 | 33 | 1026.0 |
| 20260508081601 | 52 | 277 | 3.5 | 9.6 | 0.00 | 0.00 | 0.00 | 39 | 1026.0 |
| 20260508081034 | 52 | 299 | 4.3 | 10.4 | 0.00 | 0.00 | 0.00 | 36 | 1025.9 |
| 20260508080532 | 53 | 326 | 4.3 | 10.4 | 0.00 | 0.00 | 0.00 | 34 | 1026.0 |
| 20260508080051 | 53 | 283 | 4.3 | 12.2 | 0.00 | 0.00 | 0.00 | 30 | 1025.9 |
| 20260508075533 | 53 | 356 | 2.6 | 12.2 | 0.00 | 0.00 | 0.00 | 32 | 1025.8 |
| 20260508075033 | 52 | 324 | 4.3 | 10.4 | 0.00 | 0.00 | 0.00 | 34 | 1025.8 |
| 20260508074543 | 52 | 311 | 1.7 | 8.7 | 0.00 | 0.00 | 0.00 | 34 | 1025.8 |
| 20260508074033 | 51 | 263 | 3.5 | 8.7 | 0.00 | 0.00 | 0.00 | 35 | 1025.7 |
| 20260508073534 | 51 | 9 | 3.5 | 7.8 | 0.00 | 0.00 | 0.00 | 35 | 1025.7 |
| 20260508073052 | 51 | 9 | 2.6 | 7.8 | 0.00 | 0.00 | 0.00 | 41 | 1025.6 |
| 20260508072532 | 50 | 261 | 0.9 | 3.5 | 0.00 | 0.00 | 0.00 | 51 | 1025.5 |
| 20260508072034 | 49 | 0 | 0.0 | 5.2 | 0.00 | 0.00 | 0.00 | 52 | 1025.5 |
| 20260508071540 | 49 | 24 | 1.7 | 5.2 | 0.00 | 0.00 | 0.00 | 50 | 1025.6 |
| 20260508071031 | 50 | 286 | 2.6 | 5.2 | 0.00 | 0.00 | 0.00 | 53 | 1025.5 |
| 20260508070535 | 49 | 234 | 1.7 | 6.1 | 0.00 | 0.00 | 0.00 | 53 | 1025.3 |
| 20260508070046 | 48 | 265 | 3.5 | 6.1 | 0.00 | 0.00 | 0.00 | 54 | 1025.3 |
| 20260508065534 | 48 | 261 | 0.9 | 5.2 | 0.00 | 0.00 | 0.00 | 58 | 1025.3 |
| 20260508065034 | 47 | 285 | 1.7 | 5.2 | 0.00 | 0.00 | 0.00 | 60 | 1025.2 |
| 20260508064541 | 47 | 273 | 2.6 | 5.2 | 0.00 | 0.00 | 0.00 | 61 | 1025.2 |
| 20260508064038 | 47 | 0 | 1.7 | 3.5 | 0.00 | 0.00 | 0.00 | 65 | 1025.2 |
| 20260508063534 | 46 | 0 | 0.0 | 3.5 | 0.00 | 0.00 | 0.00 | 67 | 1025.1 |
| 20260508063039 | 46 | 272 | 1.7 | 3.5 | 0.00 | 0.00 | 0.00 | 67 | 1025.1 |
| 20260508062533 | 46 | 264 | 0.9 | 3.5 | 0.00 | 0.00 | 0.00 | 69 | 1025.1 |
| 20260508062034 | 45 | 303 | 1.7 | 3.5 | 0.00 | 0.00 | 0.00 | 72 | 1025.0 |
| 20260508061543 | 45 | 266 | 1.7 | 6.1 | 0.00 | 0.00 | 0.00 | 73 | 1024.9 |
| 20260508061033 | 44 | 222 | 1.7 | 6.1 | 0.00 | 0.00 | 0.00 | 74 | 1024.9 |
| 20260508060536 | 44 | 253 | 0.9 | 6.1 | 0.00 | 0.00 | 0.00 | 75 | 1024.9 |
| 20260508055531 | 43 | 236 | 1.7 | 5.2 | 0.00 | 0.00 | 0.00 | 77 | 1024.9 |
| 20260508055031 | 43 | 263 | 1.7 | 4.3 | 0.00 | 0.00 | 0.00 | 78 | 1024.8 |
| 20260508054543 | 42 | 230 | 2.6 | 4.3 | 0.00 | 0.00 | 0.00 | 79 | 1024.8 |
| 20260508054030 | 42 | 229 | 1.7 | 4.3 | 0.00 | 0.00 | 0.00 | 80 | 1024.7 |
| 20260508053530 | 41 | 272 | 1.7 | 4.3 | 0.00 | 0.00 | 0.00 | 82 | 1024.7 |
| 20260508053043 | 40 | 262 | 2.6 | 6.1 | 0.00 | 0.00 | 0.00 | 81 | 1024.7 |
| 20260508052537 | 40 | 251 | 3.5 | 6.1 | 0.00 | 0.00 | 0.00 | 82 | 1024.6 |
| 20260508052034 | 40 | 253 | 2.6 | 5.2 | 0.00 | 0.00 | 0.00 | 82 | 1024.5 |
| 20260508051556 | 39 | 270 | 2.6 | 5.2 | 0.00 | 0.00 | 0.00 | 83 | 1024.4 |
| 20260508051034 | 39 | 245 | 2.6 | 5.2 | 0.00 | 0.00 | 0.00 | 83 | 1024.4 |
| 20260508050534 | 39 | 239 | 2.6 | 5.2 | 0.00 | 0.00 | 0.00 | 83 | 1024.3 |
| 20260508050049 | 39 | 232 | 2.6 | 6.1 | 0.00 | 0.00 | 0.00 | 84 | 1024.3 |
| 20260508045534 | 39 | 283 | 1.7 | 6.1 | 0.00 | 0.00 | 0.00 | 85 | 1024.3 |
| 20260508045036 | 38 | 229 | 2.6 | 6.1 | 0.00 | 0.00 | 0.00 | 85 | 1024.2 |
| 20260508044549 | 38 | 252 | 2.6 | 5.2 | 0.00 | 0.00 | 0.00 | 86 | 1024.2 |
| 20260508044033 | 38 | 262 | 2.6 | 5.2 | 0.00 | 0.00 | 0.00 | 86 | 1024.2 |
| 20260508043537 | 38 | 253 | 1.7 | 6.1 | 0.00 | 0.00 | 0.00 | 87 | 1024.1 |
| 20260508043041 | 37 | 264 | 2.6 | 6.1 | 0.00 | 0.00 | 0.00 | 87 | 1024.0 |
| 20260508042535 | 37 | 254 | 2.6 | 6.1 | 0.00 | 0.00 | 0.00 | 88 | 1024.0 |
| 20260508042033 | 37 | 259 | 1.7 | 5.2 | 0.00 | 0.00 | 0.00 | 90 | 1023.9 |
| 20260508041541 | 36 | 230 | 0.9 | 4.3 | 0.00 | 0.00 | 0.00 | 92 | 1023.9 |
| 20260508041033 | 35 | 236 | 1.7 | 6.1 | 0.00 | 0.00 | 0.00 | 94 | 1023.8 |
| 20260508040534 | 34 | 249 | 2.6 | 6.1 | 0.00 | 0.00 | 0.00 | 95 | 1023.7 |
| 20260508040050 | 33 | 237 | 2.6 | 5.2 | 0.00 | 0.00 | 0.00 | 95 | 1023.6 |
| 20260508035535 | 30 | 212 | 1.7 | 3.5 | 0.00 | 0.00 | 0.00 | 94 | 1023.6 |
| 20260508035031 | 29 | 229 | 1.7 | 4.3 | 0.00 | 0.00 | 0.00 | 94 | 1023.6 |
| 20260508034550 | 27 | 243 | 1.7 | 4.3 | 0.00 | 0.00 | 0.00 | 93 | 1023.6 |
| 20260508034034 | 27 | 228 | 2.6 | 4.3 | 0.00 | 0.00 | 0.00 | 93 | 1023.5 |
| 20260508033534 | 26 | 211 | 0.9 | 2.6 | 0.00 | 0.00 | 0.00 | 92 | 1023.4 |
| 20260508033051 | 26 | 249 | 0.0 | 1.7 | 0.00 | 0.00 | 0.00 | 92 | 1023.4 |
| 20260508032537 | 25 | 220 | 0.0 | 1.7 | 0.00 | 0.00 | 0.00 | 92 | 1023.4 |
| 20260508032035 | 25 | 0 | 0.0 | 2.6 | 0.00 | 0.00 | 0.00 | 92 | 1023.2 |
| 20260508031544 | 25 | 232 | 0.9 | 2.6 | 0.00 | 0.00 | 0.00 | 91 | 1023.1 |
| 20260508031034 | 25 | 236 | 0.9 | 2.6 | 0.00 | 0.00 | 0.00 | 91 | 1023.2 |
| 20260508030534 | 24 | 226 | 0.9 | 3.5 | 0.00 | 0.00 | 0.00 | 91 | 1023.2 |
| 20260508030058 | 24 | 243 | 1.7 | 3.5 | 0.00 | 0.00 | 0.00 | 90 | 1023.1 |
| 20260508025533 | 24 | 239 | 0.9 | 2.6 | 0.00 | 0.00 | 0.00 | 90 | 1023.1 |
| 20260508025033 | 24 | 0 | 0.9 | 3.5 | 0.00 | 0.00 | 0.00 | 90 | 1023.0 |
| 20260508024615 | 24 | 220 | 0.9 | 3.5 | 0.00 | 0.00 | 0.00 | 90 | 1022.9 |
| 20260508024033 | 24 | 238 | 0.9 | 2.6 | 0.00 | 0.00 | 0.00 | 89 | 1022.8 |
| 20260508023532 | 24 | 228 | 0.0 | 0.9 | 0.00 | 0.00 | 0.00 | 89 | 1022.7 |
| 20260508023044 | 24 | 0 | 0.0 | 0.0 | 0.00 | 0.00 | 0.00 | 89 | 1022.7 |
| 20260508022531 | 24 | 0 | 0.0 | 0.0 | 0.00 | 0.00 | 0.00 | 89 | 1022.5 |
| 20260508022035 | 24 | 0 | 0.0 | 0.0 | 0.00 | 0.00 | 0.00 | 89 | 1022.6 |
| 20260508021555 | 24 | 0 | 0.0 | 0.0 | 0.00 | 0.00 | 0.00 | 89 | 1022.6 |
| 20260508021036 | 24 | 0 | 0.0 | 0.0 | 0.00 | 0.00 | 0.00 | 89 | 1022.6 |
| 20260508020534 | 24 | 0 | 0.0 | 0.0 | 0.00 | 0.00 | 0.00 | 89 | 1022.4 |
| 20260508020049 | 24 | 0 | 0.0 | 0.0 | 0.00 | 0.00 | 0.00 | 89 | 1022.5 |
| 20260508015534 | 24 | 0 | 0.0 | 0.0 | 0.00 | 0.00 | 0.00 | 89 | 1022.4 |
| 20260508015034 | 24 | 0 | 0.0 | 0.0 | 0.00 | 0.00 | 0.00 | 89 | 1022.4 |
| 20260508014548 | 24 | 0 | 0.0 | 0.0 | 0.00 | 0.00 | 0.00 | 89 | 1022.4 |
| 20260508014034 | 24 | 0 | 0.0 | 0.0 | 0.00 | 0.00 | 0.00 | 88 | 1022.3 |
| 20260508013533 | 24 | 0 | 0.0 | 0.0 | 0.00 | 0.00 | 0.00 | 88 | 1022.3 |
| 20260508013048 | 24 | 0 | 0.0 | 0.0 | 0.00 | 0.00 | 0.00 | 88 | 1022.3 |
| 20260508012533 | 24 | 0 | 0.0 | 0.0 | 0.00 | 0.00 | 0.00 | 88 | 1022.3 |
| 20260508012033 | 24 | 0 | 0.0 | 0.0 | 0.00 | 0.00 | 0.00 | 88 | 1022.2 |
| 20260508011547 | 24 | 0 | 0.0 | 0.9 | 0.00 | 0.00 | 0.00 | 88 | 1022.1 |
| 20260508011035 | 25 | 0 | 0.0 | 1.7 | 0.00 | 0.00 | 0.00 | 88 | 1022.1 |
| 20260508010535 | 25 | 0 | 0.0 | 1.7 | 0.00 | 0.00 | 0.00 | 88 | 1022.1 |
| 20260508010053 | 25 | 228 | 0.0 | 1.7 | 0.00 | 0.00 | 0.00 | 88 | 1022.0 |
| 20260508005535 | 25 | 0 | 0.0 | 1.7 | 0.00 | 0.00 | 0.00 | 87 | 1022.0 |
| 20260508005035 | 25 | 0 | 0.0 | 1.7 | 0.00 | 0.00 | 0.00 | 87 | 1022.0 |
| 20260508004554 | 25 | 0 | 0.0 | 1.7 | 0.00 | 0.00 | 0.00 | 87 | 1022.0 |
| 20260508004035 | 25 | 0 | 0.0 | 0.0 | 0.00 | 0.00 | 0.00 | 87 | 1022.0 |
| 20260508003534 | 25 | 0 | 0.0 | 0.0 | 0.00 | 0.00 | 0.00 | 87 | 1021.9 |
| 20260508003047 | 25 | 0 | 0.0 | 0.0 | 0.00 | 0.00 | 0.00 | 87 | 1021.9 |
| 20260508002533 | 25 | 0 | 0.0 | 0.0 | 0.00 | 0.00 | 0.00 | 87 | 1021.9 |
| 20260508002033 | 25 | 0 | 0.0 | 0.0 | 0.00 | 0.00 | 0.00 | 87 | 1021.9 |
| 20260508001550 | 25 | 0 | 0.0 | 0.0 | 0.00 | 0.00 | 0.00 | 86 | 1021.8 |
| 20260508001033 | 25 | 0 | 0.0 | 0.0 | 0.00 | 0.00 | 0.00 | 86 | 1021.7 |
| 20260508000534 | 25 | 0 | 0.0 | 0.0 | 0.00 | 0.00 | 0.00 | 85 | 1021.7 |
| 20260508000047 | 25 | 0 | 0.0 | 0.0 | 0.00 | 0.00 | 0.00 | 85 | 1021.6 |
| 20260507235531 | 25 | 0 | 0.0 | 0.0 | 0.00 | 0.00 | 0.00 | 85 | 1021.7 |
| 20260507235033 | 25 | 0 | 0.0 | 0.0 | 0.00 | 0.00 | 0.00 | 85 | 1021.6 |
| 20260507234542 | 25 | 0 | 0.0 | 0.0 | 0.00 | 0.00 | 0.00 | 85 | 1021.6 |
| 20260507234034 | 25 | 0 | 0.0 | 0.0 | 0.00 | 0.00 | 0.00 | 85 | 1021.5 |
| 20260507233533 | 25 | 0 | 0.0 | 0.0 | 0.00 | 0.00 | 0.00 | 85 | 1021.5 |
| 20260507233042 | 26 | 0 | 0.0 | 0.0 | 0.00 | 0.00 | 0.00 | 85 | 1021.5 |
| 20260507232534 | 26 | 0 | 0.0 | 0.0 | 0.00 | 0.00 | 0.00 | 84 | 1021.5 |
| 20260507232035 | 26 | 0 | 0.0 | 0.0 | 0.00 | 0.00 | 0.00 | 84 | 1021.4 |
| 20260507231543 | 26 | 0 | 0.0 | 0.0 | 0.00 | 0.00 | 0.00 | 84 | 1021.3 |
| 20260507231033 | 26 | 0 | 0.0 | 0.0 | 0.00 | 0.00 | 0.00 | 84 | 1021.2 |
| 20260507230533 | 26 | 0 | 0.0 | 0.0 | 0.00 | 0.00 | 0.00 | 84 | 1021.1 |
| 20260507230050 | 26 | 0 | 0.0 | 0.0 | 0.00 | 0.00 | 0.00 | 84 | 1021.2 |
| 20260507225534 | 26 | 0 | 0.0 | 0.0 | 0.00 | 0.00 | 0.00 | 84 | 1021.0 |
| 20260507225034 | 26 | 0 | 0.0 | 0.0 | 0.00 | 0.00 | 0.00 | 84 | 1020.9 |
| 20260507224547 | 27 | 0 | 0.0 | 0.0 | 0.00 | 0.00 | 0.00 | 84 | 1020.9 |
| 20260507224033 | 27 | 0 | 0.0 | 0.0 | 0.00 | 0.00 | 0.00 | 83 | 1020.9 |
| 20260507223533 | 27 | 0 | 0.0 | 0.0 | 0.00 | 0.00 | 0.00 | 83 | 1020.9 |
| 20260507223043 | 27 | 0 | 0.0 | 0.0 | 0.00 | 0.00 | 0.00 | 83 | 1020.8 |
| 20260507222534 | 27 | 0 | 0.0 | 0.0 | 0.00 | 0.00 | 0.00 | 83 | 1020.8 |
| 20260507222037 | 27 | 0 | 0.0 | 0.0 | 0.00 | 0.00 | 0.00 | 83 | 1020.7 |
| 20260507221544 | 27 | 0 | 0.0 | 0.0 | 0.00 | 0.00 | 0.00 | 83 | 1020.8 |
| 20260507221036 | 28 | 0 | 0.0 | 0.0 | 0.00 | 0.00 | 0.00 | 82 | 1020.7 |
| 20260507220538 | 28 | 0 | 0.0 | 0.0 | 0.00 | 0.00 | 0.00 | 81 | 1020.7 |
| 20260507220042 | 28 | 0 | 0.0 | 0.0 | 0.00 | 0.00 | 0.00 | 80 | 1020.7 |
| 20260507215534 | 28 | 0 | 0.0 | 0.0 | 0.00 | 0.00 | 0.00 | 80 | 1020.6 |
| 20260507215035 | 28 | 0 | 0.0 | 0.0 | 0.00 | 0.00 | 0.00 | 80 | 1020.5 |
| 20260507214549 | 28 | 0 | 0.0 | 0.0 | 0.00 | 0.00 | 0.00 | 79 | 1020.5 |
| 20260507214033 | 28 | 0 | 0.0 | 0.0 | 0.00 | 0.00 | 0.00 | 79 | 1020.2 |
| 20260507213533 | 29 | 0 | 0.0 | 0.0 | 0.00 | 0.00 | 0.00 | 78 | 1020.4 |
| 20260507213049 | 29 | 0 | 0.0 | 0.0 | 0.00 | 0.00 | 0.00 | 78 | 1020.3 |
| 20260507212534 | 29 | 0 | 0.0 | 0.0 | 0.00 | 0.00 | 0.00 | 79 | 1020.1 |
| 20260507212034 | 29 | 0 | 0.0 | 0.0 | 0.00 | 0.00 | 0.00 | 80 | 1020.0 |
| 20260507211545 | 29 | 0 | 0.0 | 0.0 | 0.00 | 0.00 | 0.00 | 79 | 1019.9 |
| 20260507211034 | 29 | 0 | 0.0 | 0.0 | 0.00 | 0.00 | 0.00 | 79 | 1019.9 |
| 20260507210533 | 30 | 0 | 0.0 | 0.0 | 0.00 | 0.00 | 0.00 | 78 | 1019.9 |
| 20260507210108 | 30 | 0 | 0.0 | 0.0 | 0.00 | 0.00 | 0.00 | 78 | 1019.8 |
| 20260507205534 | 30 | 0 | 0.0 | 0.0 | 0.00 | 0.00 | 0.00 | 77 | 1019.8 |
| 20260507205034 | 30 | 0 | 0.0 | 0.0 | 0.00 | 0.00 | 0.00 | 76 | 1019.7 |
| 20260507204546 | 30 | 0 | 0.0 | 0.0 | 0.00 | 0.00 | 0.00 | 77 | 1019.7 |
| 20260507204035 | 31 | 0 | 0.0 | 0.0 | 0.00 | 0.00 | 0.00 | 76 | 1019.6 |
| 20260507203535 | 31 | 0 | 0.0 | 0.0 | 0.00 | 0.00 | 0.00 | 76 | 1019.6 |
| 20260507203114 | 31 | 0 | 0.0 | 0.0 | 0.00 | 0.00 | 0.00 | 74 | 1019.6 |
| 20260507202537 | 31 | 0 | 0.0 | 0.0 | 0.00 | 0.00 | 0.00 | 74 | 1019.6 |
| 20260507202036 | 32 | 0 | 0.0 | 0.0 | 0.00 | 0.00 | 0.00 | 73 | 1019.5 |
| 20260507201538 | 32 | 0 | 0.0 | 0.0 | 0.00 | 0.00 | 0.00 | 72 | 1019.5 |
| 20260507201033 | 32 | 0 | 0.0 | 0.0 | 0.00 | 0.00 | 0.00 | 72 | 1019.4 |
| 20260507200533 | 33 | 0 | 0.0 | 0.0 | 0.00 | 0.00 | 0.00 | 71 | 1019.4 |
| 20260507200043 | 33 | 0 | 0.0 | 0.0 | 0.00 | 0.00 | 0.00 | 70 | 1019.3 |
| 20260507195541 | 34 | 0 | 0.0 | 0.0 | 0.00 | 0.00 | 0.00 | 68 | 1019.3 |
| 20260507195033 | 34 | 0 | 0.0 | 0.9 | 0.00 | 0.00 | 0.00 | 69 | 1019.2 |
| 20260507194538 | 35 | 0 | 0.0 | 1.7 | 0.00 | 0.00 | 0.00 | 69 | 1019.3 |
| 20260507194033 | 35 | 0 | 0.0 | 1.7 | 0.00 | 0.00 | 0.00 | 68 | 1019.2 |
| 20260507193532 | 35 | 266 | 0.0 | 1.7 | 0.00 | 0.00 | 0.00 | 67 | 1019.1 |
| 20260507193041 | 36 | 266 | 0.0 | 1.7 | 0.00 | 0.00 | 0.00 | 66 | 1019.1 |
| 20260507192534 | 37 | 0 | 0.0 | 1.7 | 0.00 | 0.00 | 0.00 | 63 | 1018.9 |
| 20260507192033 | 37 | 266 | 0.0 | 1.7 | 0.00 | 0.00 | 0.00 | 64 | 1018.9 |
| 20260507191550 | 38 | 0 | 0.0 | 1.7 | 0.00 | 0.00 | 0.00 | 64 | 1018.9 |
| 20260507191035 | 38 | 0 | 0.0 | 1.7 | 0.00 | 0.00 | 0.00 | 63 | 1018.8 |
| 20260507190532 | 38 | 0 | 0.0 | 2.6 | 0.00 | 0.00 | 0.00 | 63 | 1018.7 |
| 20260507190045 | 39 | 0 | 0.0 | 2.6 | 0.00 | 0.00 | 0.00 | 63 | 1018.7 |
| 20260507185531 | 39 | 0 | 0.9 | 2.6 | 0.00 | 0.00 | 0.00 | 64 | 1018.7 |
| 20260507185031 | 39 | 279 | 0.9 | 2.6 | 0.00 | 0.00 | 0.00 | 63 | 1018.6 |
| 20260507184542 | 39 | 320 | 0.0 | 2.6 | 0.00 | 0.00 | 0.00 | 63 | 1018.7 |
| 20260507184036 | 39 | 0 | 0.0 | 2.6 | 0.00 | 0.00 | 0.00 | 63 | 1018.6 |
| 20260507183534 | 40 | 0 | 0.0 | 2.6 | 0.00 | 0.00 | 0.00 | 62 | 1018.5 |
| 20260507183042 | 40 | 302 | 0.0 | 5.2 | 0.00 | 0.00 | 0.00 | 62 | 1018.4 |
| 20260507182536 | 41 | 0 | 0.9 | 5.2 | 0.00 | 0.00 | 0.00 | 60 | 1018.4 |
| 20260507182035 | 41 | 301 | 0.0 | 5.2 | 0.00 | 0.00 | 0.00 | 58 | 1018.3 |
| 20260507181542 | 42 | 285 | 0.9 | 5.2 | 0.00 | 0.00 | 0.00 | 56 | 1018.2 |
| 20260507181033 | 42 | 316 | 0.9 | 7.0 | 0.00 | 0.00 | 0.00 | 55 | 1018.2 |
| 20260507180532 | 42 | 320 | 1.7 | 7.0 | 0.00 | 0.00 | 0.00 | 56 | 1018.2 |
| 20260507180041 | 43 | 322 | 2.6 | 5.2 | 0.00 | 0.00 | 0.00 | 55 | 1018.1 |
| 20260507175538 | 43 | 357 | 2.6 | 6.1 | 0.00 | 0.00 | 0.00 | 53 | 1018.0 |
| 20260507175034 | 43 | 4 | 0.9 | 6.1 | 0.00 | 0.00 | 0.00 | 53 | 1017.9 |
| 20260507174547 | 44 | 280 | 1.7 | 6.1 | 0.00 | 0.00 | 0.00 | 51 | 1017.8 |
| 20260507174034 | 44 | 330 | 2.6 | 7.0 | 0.00 | 0.00 | 0.00 | 49 | 1017.8 |
| 20260507173532 | 44 | 0 | 1.7 | 8.7 | 0.00 | 0.00 | 0.00 | 47 | 1017.8 |
| 20260507173110 | 44 | 4 | 2.6 | 8.7 | 0.00 | 0.00 | 0.00 | 49 | 1017.7 |
| 20260507172530 | 45 | 247 | 2.6 | 7.8 | 0.00 | 0.00 | 0.00 | 49 | 1017.7 |
| 20260507172031 | 45 | 328 | 0.9 | 7.0 | 0.00 | 0.00 | 0.00 | 48 | 1017.6 |
| 20260507171543 | 45 | 259 | 1.7 | 10.4 | 0.00 | 0.00 | 0.00 | 47 | 1017.6 |
| 20260507171032 | 45 | 332 | 1.7 | 10.4 | 0.00 | 0.00 | 0.00 | 46 | 1017.5 |
| 20260507170531 | 46 | 311 | 2.6 | 10.4 | 0.00 | 0.00 | 0.00 | 44 | 1017.4 |
| 20260507170042 | 46 | 305 | 2.6 | 9.6 | 0.00 | 0.00 | 0.00 | 44 | 1017.4 |
| 20260507165530 | 46 | 334 | 1.7 | 9.6 | 0.00 | 0.00 | 0.00 | 44 | 1017.3 |
| 20260507165029 | 46 | 288 | 2.6 | 9.6 | 0.00 | 0.00 | 0.00 | 44 | 1017.2 |
| 20260507164539 | 46 | 328 | 5.2 | 9.6 | 0.00 | 0.00 | 0.00 | 44 | 1017.2 |
| 20260507164032 | 47 | 276 | 3.5 | 12.2 | 0.00 | 0.00 | 0.00 | 44 | 1017.3 |
| 20260507163531 | 47 | 297 | 4.3 | 12.2 | 0.00 | 0.00 | 0.00 | 44 | 1017.2 |
| 20260507163041 | 47 | 280 | 6.1 | 12.2 | 0.00 | 0.00 | 0.00 | 43 | 1017.2 |
| 20260507162535 | 47 | 269 | 4.3 | 13.0 | 0.00 | 0.00 | 0.00 | 42 | 1017.1 |
| 20260507162031 | 47 | 291 | 5.2 | 13.0 | 0.00 | 0.00 | 0.00 | 40 | 1017.0 |
| 20260507161551 | 47 | 333 | 2.6 | 13.0 | 0.00 | 0.00 | 0.00 | 41 | 1016.9 |
| 20260507161033 | 47 | 18 | 5.2 | 13.0 | 0.00 | 0.00 | 0.00 | 41 | 1016.9 |
| 20260507160530 | 48 | 336 | 0.9 | 13.0 | 0.00 | 0.00 | 0.00 | 41 | 1016.8 |
| 20260507160051 | 48 | 319 | 4.3 | 13.0 | 0.00 | 0.00 | 0.00 | 41 | 1016.9 |
| 20260507155534 | 48 | 268 | 3.5 | 13.0 | 0.00 | 0.00 | 0.00 | 42 | 1016.8 |
| 20260507155030 | 48 | 295 | 2.6 | 16.5 | 0.00 | 0.00 | 0.00 | 41 | 1016.8 |
| 20260507154542 | 48 | 315 | 10.4 | 16.5 | 0.00 | 0.00 | 0.00 | 40 | 1016.7 |
| 20260507154032 | 48 | 274 | 7.0 | 14.8 | 0.00 | 0.00 | 0.00 | 43 | 1016.7 |
| 20260507153532 | 49 | 280 | 4.3 | 14.8 | 0.00 | 0.00 | 0.00 | 42 | 1016.7 |
| 20260507153047 | 49 | 274 | 5.2 | 13.9 | 0.00 | 0.00 | 0.00 | 40 | 1016.6 |
| 20260507152533 | 49 | 286 | 6.1 | 12.2 | 0.00 | 0.00 | 0.00 | 42 | 1016.5 |
| 20260507152032 | 49 | 288 | 1.7 | 12.2 | 0.00 | 0.00 | 0.00 | 43 | 1016.5 |
| 20260507151544 | 49 | 317 | 4.3 | 12.2 | 0.00 | 0.00 | 0.00 | 41 | 1016.6 |
| 20260507151030 | 49 | 309 | 4.3 | 10.4 | 0.00 | 0.00 | 0.00 | 41 | 1016.6 |
| 20260507150531 | 49 | 250 | 4.3 | 12.2 | 0.00 | 0.00 | 0.00 | 39 | 1016.4 |
| 20260507150043 | 49 | 291 | 5.2 | 12.2 | 0.00 | 0.00 | 0.00 | 43 | 1016.4 |
| 20260507145531 | 49 | 284 | 7.0 | 12.2 | 0.00 | 0.00 | 0.00 | 46 | 1016.4 |
| 20260507145029 | 50 | 266 | 3.5 | 12.2 | 0.00 | 0.00 | 0.00 | 44 | 1016.3 |
| 20260507144539 | 49 | 272 | 6.1 | 13.0 | 0.00 | 0.00 | 0.00 | 43 | 1016.4 |
| 20260507144032 | 49 | 307 | 4.3 | 15.6 | 0.00 | 0.00 | 0.00 | 44 | 1016.3 |
| 20260507143534 | 49 | 288 | 9.6 | 15.6 | 0.00 | 0.00 | 0.00 | 43 | 1016.3 |
| 20260507143059 | 50 | 283 | 7.0 | 15.6 | 0.00 | 0.00 | 0.00 | 44 | 1016.2 |
| 20260507142535 | 49 | 258 | 10.4 | 15.6 | 0.00 | 0.00 | 0.00 | 45 | 1016.2 |
| 20260507142034 | 50 | 275 | 7.8 | 17.4 | 0.00 | 0.00 | 0.00 | 47 | 1016.3 |
| 20260507141601 | 49 | 259 | 8.7 | 17.4 | 0.00 | 0.00 | 0.00 | 46 | 1016.2 |
| 20260507141031 | 49 | 288 | 10.4 | 17.4 | 0.00 | 0.00 | 0.00 | 44 | 1016.2 |
| 20260507140534 | 49 | 278 | 8.7 | 17.4 | 0.00 | 0.00 | 0.00 | 46 | 1016.1 |
| 20260507140044 | 49 | 315 | 7.0 | 15.6 | 0.00 | 0.00 | 0.00 | 50 | 1016.1 |
| 20260507135534 | 49 | 271 | 10.4 | 15.6 | 0.00 | 0.00 | 0.00 | 46 | 1016.0 |
| 20260507135036 | 49 | 282 | 9.6 | 14.8 | 0.00 | 0.00 | 0.00 | 47 | 1015.9 |
| 20260507134544 | 50 | 256 | 7.0 | 15.6 | 0.00 | 0.00 | 0.00 | 47 | 1015.9 |
| 20260507134035 | 49 | 275 | 8.7 | 16.5 | 0.00 | 0.00 | 0.00 | 50 | 1015.9 |
| 20260507133534 | 50 | 272 | 11.3 | 16.5 | 0.00 | 0.00 | 0.00 | 48 | 1015.9 |
| 20260507133108 | 50 | 260 | 7.0 | 18.2 | 0.00 | 0.00 | 0.00 | 52 | 1015.8 |
| 20260507132536 | 50 | 258 | 8.7 | 18.2 | 0.00 | 0.00 | 0.00 | 48 | 1015.8 |
| 20260507132033 | 50 | 251 | 10.4 | 18.2 | 0.00 | 0.00 | 0.00 | 48 | 1015.8 |
| 20260507131545 | 51 | 253 | 7.0 | 16.5 | 0.00 | 0.00 | 0.00 | 49 | 1015.7 |
| 20260507131032 | 50 | 241 | 9.6 | 16.5 | 0.00 | 0.00 | 0.00 | 50 | 1015.7 |
| 20260507130536 | 51 | 258 | 9.6 | 16.5 | 0.00 | 0.00 | 0.00 | 48 | 1015.8 |
| 20260507130101 | 50 | 274 | 8.7 | 17.4 | 0.00 | 0.00 | 0.00 | 49 | 1015.8 |
| 20260507125531 | 50 | 252 | 10.4 | 17.4 | 0.00 | 0.00 | 0.00 | 49 | 1015.8 |
| 20260507125034 | 49 | 254 | 8.7 | 15.6 | 0.00 | 0.00 | 0.00 | 52 | 1015.7 |
| 20260507124548 | 47 | 291 | 7.8 | 15.6 | 0.00 | 0.00 | 0.00 | 53 | 1015.7 |
| 20260507124031 | 48 | 249 | 7.0 | 16.5 | 0.00 | 0.00 | 0.00 | 53 | 1015.7 |
| 20260507123536 | 48 | 251 | 9.6 | 18.2 | 0.00 | 0.00 | 0.00 | 51 | 1015.7 |
| 20260507123047 | 50 | 258 | 7.0 | 18.2 | 0.00 | 0.00 | 0.00 | 50 | 1015.6 |
| 20260507122534 | 50 | 241 | 11.3 | 18.2 | 0.00 | 0.00 | 0.00 | 50 | 1015.6 |
| 20260507122032 | 49 | 261 | 12.2 | 17.4 | 0.00 | 0.00 | 0.00 | 54 | 1015.6 |
| 20260507121542 | 48 | 279 | 8.7 | 14.8 | 0.00 | 0.00 | 0.00 | 53 | 1015.5 |
| 20260507121033 | 49 | 267 | 8.7 | 17.4 | 0.00 | 0.00 | 0.00 | 51 | 1015.5 |
| 20260507120533 | 50 | 229 | 8.7 | 20.0 | 0.00 | 0.00 | 0.00 | 53 | 1015.5 |
| 20260507120039 | 50 | 259 | 9.6 | 20.0 | 0.00 | 0.00 | 0.00 | 51 | 1015.6 |
| 20260507115534 | 50 | 261 | 12.2 | 20.0 | 0.00 | 0.00 | 0.00 | 50 | 1015.6 |
| 20260507115033 | 50 | 266 | 9.6 | 20.0 | 0.00 | 0.00 | 0.00 | 50 | 1015.6 |
| 20260507114559 | 50 | 205 | 10.4 | 20.0 | 0.00 | 0.00 | 0.00 | 50 | 1015.6 |
| 20260507114034 | 50 | 232 | 10.4 | 20.9 | 0.00 | 0.00 | 0.00 | 52 | 1015.5 |
| 20260507113606 | 49 | 266 | 13.0 | 20.9 | 0.00 | 0.00 | 0.00 | 52 | 1015.6 |
| 20260507113044 | 49 | 232 | 12.2 | 20.0 | 0.00 | 0.00 | 0.00 | 50 | 1015.6 |
| 20260507112533 | 50 | 230 | 12.2 | 20.0 | 0.00 | 0.00 | 0.00 | 52 | 1015.5 |
| 20260507112038 | 48 | 265 | 10.4 | 18.2 | 0.00 | 0.00 | 0.00 | 53 | 1015.6 |
| 20260507111542 | 47 | 254 | 10.4 | 20.9 | 0.00 | 0.00 | 0.00 | 53 | 1015.6 |
| 20260507111034 | 47 | 260 | 11.3 | 20.9 | 0.00 | 0.00 | 0.00 | 52 | 1015.6 |
| 20260507110534 | 48 | 283 | 8.7 | 15.6 | 0.00 | 0.00 | 0.00 | 50 | 1015.5 |
| 20260507110043 | 49 | 215 | 7.8 | 14.8 | 0.00 | 0.00 | 0.00 | 46 | 1015.4 |
| 20260507105532 | 49 | 269 | 8.7 | 14.8 | 0.00 | 0.00 | 0.00 | 48 | 1015.5 |
| 20260507105032 | 48 | 247 | 8.7 | 18.2 | 0.00 | 0.00 | 0.00 | 45 | 1015.4 |
| 20260507104548 | 47 | 251 | 10.4 | 18.2 | 0.00 | 0.00 | 0.00 | 46 | 1015.5 |
| 20260507104032 | 47 | 238 | 7.0 | 17.4 | 0.00 | 0.00 | 0.00 | 48 | 1015.5 |
| 20260507103537 | 47 | 266 | 7.0 | 18.2 | 0.00 | 0.00 | 0.00 | 48 | 1015.4 |
| 20260507103049 | 47 | 223 | 11.3 | 18.2 | 0.00 | 0.00 | 0.00 | 47 | 1015.4 |
| 20260507102532 | 48 | 247 | 9.6 | 17.4 | 0.00 | 0.00 | 0.00 | 46 | 1015.4 |